Regional Weather Roundup
Issued by NWS Newport/Morehead, NC

Home | Current Version | Previous Version | Text Only | Print | Product List | Glossary On
Versions: 1 2 3 4 5 6 7 8 9 10 11 12 13 14 15 16 17 18 19 20 21 22 23 24 25 26 27 28 29 30 31 32 33 34 35 36 37 38 39 40 41 42 43 44 45 46 47 48 49 50
078
ASUS42 KMHX 211525
RWRMHX
WEATHER ROUNDUP FOR EASTERN NORTH CAROLINA
NATIONAL WEATHER SERVICE NEWPORT/MOREHEAD CITY NC
1000 AM EST SUN JAN 21 2018

NOTE: "FAIR" INDICATES FEW OR NO CLOUDS BELOW 12,000 FEET
WITH NO SIGNIFICANT WEATHER AND/OR OBSTRUCTIONS TO VISIBILITY

NCZ015>017-031-032-045>047-102-103-211600-
NORTH COAST

CITY           SKY/WX    TMP DP  RH WIND       PRES   REMARKS
EDENTON        FAIR      50  38  61 W5        30.26R
ELIZABETH CITY FAIR      51  44  77 N7        30.24R
KITTY HAWK     FAIR      49  34  56 CALM      30.23R
MANTEO         FAIR      49  34  56 CALM      30.25R

$$

NCZ045>047-081-094-103-104-211600-
CENTRAL COAST

CITY           SKY/WX    TMP DP  RH WIND       PRES   REMARKS
FRISCO         FAIR      48  35  60 W6        30.25R

$$

NCZ095-097-098-100-101-211600-
SOUTHERN COAST

CITY           SKY/WX    TMP DP  RH WIND       PRES   REMARKS
BEAUFORT       FAIR      48  37  65 NW5       30.27R
CEDAR ISLAND   NOT AVBL
JACKSONVILLE   FAIR      49  35  58 W3        30.26S
PINEY ISLAND   NOT AVBL
WILMINGTON     FAIR      50  36  58 W5        30.29R


$$

NCZ011>013-027>030-043-044-078>080-089-090>093-098-211600-
COASTAL PLAIN

CITY           SKY/WX    TMP DP  RH WIND       PRES   REMARKS
AHOSKIE        FAIR      51  40  68 CALM      30.26R
CLINTON        FAIR      50  35  56 CALM      30.27F
ELIZABETHTOWN  NOT AVBL
GOLDSBORO      FAIR      53  34  50 W5        30.25R
GREENVILLE     FAIR      55  37  50 N3        30.26S
HAVELOCK       NOT AVBL
KENANSVILLE    FAIR      55  36  47 CALM      30.27S
KINSTON        FAIR      54  36  50 CALM      30.27R
NEW BERN       FAIR      52  35  52 NW5       30.27S
RICHLANDS      FAIR      49  34  56 SW3       30.27S
ROCKY MOUNT    NOT AVBL
WASHINGTON     FAIR      53  37  53 NW5       30.27R
WHITEVILLE     FAIR      52  36  54 CALM      30.28R

$$

AMZ130-135-150-152-154-156-158-170-250-252-270-ANZ085-086-088-633-658-670-211600-
MARINE OBSERVATIONS

STATION/POSITION TIME  TEMP    WIND        PRES    WAVE   SWELL
                       AIR SEA DIR/SP/G            HT/PER HT/PER
                 (UTC) (F)     (DEG/KT/KT) (MB)    (FT/S) (FT/S)
CHESAPEAKE LIGHT NOT AVBL
64 E VA BEACH    1450   51 58  330/  6/  8 1024.0    2/ 6   2/ 6
DUCK             1500   47 40  280/  2/  5 1023.4
2 E DUCK         1500      40                N/A     1/11
OREGON INLET     1500   49 40  290/  4/  5 1024.0
13E OREGON INLT  1448      40                N/A     2/11   2/11
HATTERAS CG      1500   47 49  280/ 10/ 12 1024.2
DIAMOND BUOY     1510   54 70  310/  6/ 10 1024.6
CAPE LOOKOUT     1500          290/  7/  8 1025.2
BEAUFORT LAB     1500   47 46  270/  2/  3 1024.9
30 SE NEW RVR IN 1508   53 57  340/  8/ 12 1025.1
30 SE NEW RVR IN 1500      57                N/A     2/ 5
27 SE WRIGHTSVLE 1508   54 60  290/  8/ 12 1025.5
5 SE WRIGHTSVLE  1508   47 45  250/  2/  6 1024.9
225 S CAPE HAT   1450   69 70  210/ 12/ 14 1025.4    3/10   3/10
41 SE CHARLESTON 1510   60 70  340/  4/  6 1025.6

$$




USA.gov is the U.S. government's official web portal to all federal, state and local government web resources and services.